Stations météo

Publicité
Montelimar, France (7577): Température de l'air & dewpoint: 21.10.2020 19:00:00 - 27.10.2020 19:00:00 (CET)Montelimar, France (7577): Température de l'air 5cm: 21.10.2020 19:00:00 - 27.10.2020 19:00:00 (CET)Montelimar, France (7577): Température de l'air -20cm & Température de l'air -100cm: 21.10.2020 19:00:00 - 27.10.2020 19:00:00 (CET)Montelimar, France (7577): Vitesse du vent & gusts: 21.10.2020 19:00:00 - 27.10.2020 19:00:00 (CET)Montelimar, France (7577): Direction du vent: 21.10.2020 19:00:00 - 27.10.2020 19:00:00 (CET)Montelimar, France (7577): reduced air pressure: 21.10.2020 19:00:00 - 27.10.2020 19:00:00 (CET)Montelimar, France (7577): visibility: 21.10.2020 19:00:00 - 27.10.2020 19:00:00 (CET)Montelimar, France (7577): Ensoleillement: 21.10.2020 19:00:00 - 27.10.2020 19:00:00 (CET)Montelimar, France (7577): Quantités de précipitations: 21.10.2020 19:00:00 - 27.10.2020 19:00:00 (CET)
Date & Time tt [°C] td [°C] tt 5cm [°C] tt -20cm [°C] tt -100cm [°C] ff [km/h] ff [knt] fx [km/h] fx [knt] dd ppp [hPa] vv [km] sd [min] rr [mm]
27.10.2020 19:00:00 10,7 7,9 7,1 14,3 16,5 0 0 6 3 N 1015,3 20 0 0,0
27.10.2020 18:00:00 12,2 7,3 7,9 14,2 16,5 2 1 5 3 E 1014,6 20 6 0,0
27.10.2020 17:00:00 14,7 5,7 14,1 14,2 16,5 4 2 11 6 N 1014,0 20 34 0,0
27.10.2020 16:00:00 15,0 6,3 15,9 14,1 16,6 7 4 13 7 NNE 1013,7 20 39 0,0
27.10.2020 15:00:00 15,4 6,7 17,3 14,0 16,6 8 4 19 10 NE 1013,8 20 44 0,0
27.10.2020 14:00:00 14,7 6,8 17,2 13,9 16,5 9 5 21 12 NNE 1014,0 20 32 0,0
27.10.2020 13:00:00 14,8 5,8 17,0 13,9 16,6 14 8 23 12 NE 1014,4 20 54 0,0
27.10.2020 12:00:00 14,0 5,4 16,8 13,9 16,5 13 7 22 12 NE 1015,1 20 56 0,0
27.10.2020 11:00:00 12,9 6,2 16,3 14,0 16,6 13 7 22 12 NNE 1015,4 20 58 0,0
27.10.2020 10:00:00 10,9 7,6 12,3 14,1 16,6 13 7 20 11 NNE 1015,4 20 46 0,0
27.10.2020 09:00:00 9,1 7,5 6,8 14,2 16,6 12 6 21 11 NNE 1015,2 20 60 0,0
27.10.2020 08:00:00 5,8 5,7 1,9 14,3 16,6 3 2 7 4 SSW 1014,6 20 24 0,0
27.10.2020 07:00:00 4,4 3,7 1,6 14,4 16,6 0 0 9 5 N 1014,2 20 0 0,0
27.10.2020 06:00:00 4,9 4,6 1,2 14,5 16,6 3 2 7 4 W 1013,8 20 0 0,0
27.10.2020 05:00:00 4,7 4,0 1,2 14,6 16,6 0 0 8 4 N 1013,3 20 0 0,0
27.10.2020 04:00:00 5,0 4,1 1,5 14,6 16,6 2 1 5 3 NW 1013,0 20 0 0,0
27.10.2020 03:00:00 6,1 5,4 3,7 14,7 16,6 5 3 10 6 N 1013,1 20 0 0,0
27.10.2020 02:00:00 5,5 4,6 2,6 14,8 16,6 2 1 7 4 NNE 1013,2 20 0 0,0
27.10.2020 01:00:00 6,3 5,4 3,0 14,9 16,6 3 2 9 5 SSW 1013,1 20 0 0,0
27.10.2020 00:00:00 7,1 5,7 4,0 15,0 16,6 0 0 6 4 N 1013,2 20 0 0,0
26.10.2020 23:00:00 7,9 6,0 4,9 15,0 16,6 4 2 10 5 ENE 1012,9 20 0 0,0
26.10.2020 22:00:00 9,0 6,6 6,1 15,0 16,6 6 3 12 6 N 1012,6 20 0 0,0
26.10.2020 21:00:00 10,2 6,9 7,4 15,1 16,6 9 5 22 12 N 1011,9 20 0 0,0
26.10.2020 20:00:00 10,1 7,2 7,7 15,1 16,6 8 4 11 6 N 1011,4 20 0 0,0
26.10.2020 19:00:00 10,7 7,2 9,0 15,0 16,6 6 4 15 8 NNE 1011,0 20 0 0,0
26.10.2020 18:00:00 11,7 7,2 10,4 15,0 16,6 10 5 18 10 NNE 1009,8 20 1 0,0
26.10.2020 17:00:00 13,1 7,5 12,5 15,0 16,6 8 5 19 10 NNE 1009,0 20 44 0,0
26.10.2020 16:00:00 13,6 6,9 14,8 14,9 16,6 13 7 25 14 NNE 1008,8 20 51 0,0
26.10.2020 15:00:00 14,0 6,8 15,7 14,8 16,6 13 7 27 15 N 1008,9 20 50 0,0
26.10.2020 14:00:00 13,5 6,4 16,1 14,8 16,6 19 10 32 17 NNE 1008,8 20 56 0,0
26.10.2020 13:00:00 13,0 6,8 16,8 14,9 16,7 18 10 29 16 NNE 1009,7 20 60 0,0
26.10.2020 12:00:00 12,1 6,8 16,7 14,9 16,6 19 10 32 17 NNE 1009,9 20 60 0,0
26.10.2020 11:00:00 11,3 7,4 10,6 15,0 16,6 16 9 34 18 NNE 1010,0 20 23 0,0
26.10.2020 10:00:00 9,6 7,0 8,8 15,0 16,7 14 8 29 15 N 1010,0 20 0 0,0
26.10.2020 09:00:00 9,1 7,0 8,6 15,1 16,7 20 11 35 19 NNE 1009,7 20 0 0,4
26.10.2020 08:00:00 9,6 7,2 8,5 15,1 16,7 13 7 34 18 NNE 1009,3 20 0 0,4
26.10.2020 07:00:00 10,2 7,4 9,0 15,1 16,7 15 8 33 18 N 1008,6 20 0 0,2
26.10.2020 06:00:00 10,6 8,4 9,9 15,2 16,7 18 10 41 22 NNE 1008,1 20 0 0,2
26.10.2020 05:00:00 10,5 9,4 10,0 15,2 16,7 21 12 46 25 NNE 1007,8 8 0 1,4
26.10.2020 04:00:00 11,9 9,6 10,9 15,2 16,7 16 9 34 19 NNE 1006,8 20 0 7,2
26.10.2020 03:00:00 14,6 13,6 13,8 15,2 16,7 12 6 22 12 SW 1004,8 2,1 0 5,3
26.10.2020 02:00:00 14,6 13,3 13,9 15,2 16,7 7 4 20 11 SSW 1004,7 13 0 1,0
26.10.2020 01:00:00 15,0 13,2 13,9 15,2 16,7 13 7 24 13 SW 1005,5 8 0 1,0
26.10.2020 00:00:00 16,2 12,0 14,5 15,2 16,7 8 5 19 10 SW 1005,9 20 0 0,0
25.10.2020 23:00:00 16,9 11,2 16,1 15,1 16,7 11 6 27 15 SW 1006,9 20 0 0,0
25.10.2020 22:00:00 16,9 11,0 16,1 15,1 16,7 13 7 29 16 SSW 1007,0 20 0 0,0
25.10.2020 21:00:00 16,6 11,1 15,8 15,1 16,7 11 6 24 13 SSW 1007,3 20 0 0,0
25.10.2020 20:00:00 16,3 12,3 15,7 15,0 16,7 12 7 21 12 SSW 1007,6 20 0 0,0
25.10.2020 19:00:00 16,1 12,8 15,1 15,0 16,7 9 5 15 8 SSW 1008,5 20 0 0,0
25.10.2020 18:00:00 16,0 12,5 14,4 14,9 16,7 6 4 16 8 SSW 1008,5 20 0 0,0
25.10.2020 17:00:00 17,2 12,5 16,8 14,8 16,7 7 4 22 12 SW 1009,0 20 0 0,0
25.10.2020 16:00:00 18,0 13,1 18,0 14,7 16,7 11 6 23 13 SW 1009,3 20 0 0,0
25.10.2020 15:00:00 17,9 12,8 18,7 14,7 16,7 10 6 21 12 SSW 1009,2 20 3 0,0
25.10.2020 14:00:00 16,9 12,2 16,9 14,7 16,8 5 3 13 7 SW 1010,2 20 0 0,0
25.10.2020 13:00:00 15,5 12,3 15,9 14,7 16,7 4 2 8 5 S 1011,7 20 0 0,0
25.10.2020 12:00:00 14,2 11,4 14,7 14,7 16,7 5 3 14 8 S 1012,4 20 0 0,0
25.10.2020 11:00:00 12,2 11,1 11,3 14,8 16,7 8 4 15 8 S 1012,8 20 0 0,0
25.10.2020 10:00:00 9,7 8,9 11,3 14,9 16,8 3 2 6 3 SSW 1013,3 20 33 0,0
25.10.2020 09:00:00 8,4 8,1 8,0 15,0 16,8 0 0 5 3 N 1013,8 20 41 0,0
25.10.2020 08:00:00 6,8 6,7 3,7 15,1 16,8 3 1 4 2 SSW 1014,1 16 28 0,0
25.10.2020 07:00:00 5,6 5,3 2,8 15,3 16,8 0 0 3 2 N 1014,5 2,4 0 0,0
25.10.2020 06:00:00 5,6 5,2 3,2 15,4 16,8 0 0 3 2 N 1014,9 1,0 0 0,0
25.10.2020 05:00:00 5,9 5,3 3,6 15,5 16,8 0 0 0 0 N 1015,1 0,6 0 0,0
25.10.2020 04:00:00 6,2 5,6 3,5 15,6 16,8 0 0 3 2 N 1015,6 1,0 0 0,0
25.10.2020 03:00:00 6,7 5,8 4,1 15,6 16,7 0 0 3 2 N 1016,3 12 0 0,0
25.10.2020 02:00:00 7,0 6,1 4,6 15,7 16,7 2 1 3 2 NE 1016,7 0,2 0 0,0
25.10.2020 01:00:00 - - - - - - - - - - - - - -
25.10.2020 00:00:00 8,3 7,5 4,8 15,9 16,7 0 0 3 2 N 1017,4 10 0 0,0
24.10.2020 23:00:00 8,6 7,2 5,5 15,9 16,7 0 0 5 3 N 1017,7 3,3 0 0,0
24.10.2020 22:00:00 9,2 7,8 6,0 16,0 16,7 0 0 5 3 N 1017,7 16 0 0,0
24.10.2020 21:00:00 10,2 8,8 6,7 16,0 16,7 3 2 4 2 E 1017,8 19 0 0,0
24.10.2020 20:00:00 11,6 9,7 7,6 16,0 16,7 3 1 8 5 NE 1017,7 20 0 0,0
24.10.2020 19:00:00 12,5 9,9 8,9 15,9 16,7 4 2 6 3 E 1017,9 20 0 0,0
24.10.2020 18:00:00 14,7 10,9 9,9 15,9 16,7 2 1 8 4 N 1017,9 18 0 0,0
24.10.2020 17:00:00 17,0 10,8 15,8 15,8 16,7 7 4 14 8 NNE 1017,6 20 28 0,0
24.10.2020 16:00:00 18,2 10,6 20,4 15,6 16,7 9 5 21 12 NE 1017,6 20 60 0,0
24.10.2020 15:00:00 18,5 10,3 21,7 15,5 16,7 13 7 23 12 NNE 1018,1 20 60 0,0
24.10.2020 14:00:00 18,6 10,4 22,4 15,4 16,7 16 9 30 16 NNE 1018,4 20 60 0,0
24.10.2020 13:00:00 18,4 10,5 21,8 15,4 16,7 17 9 33 18 NNE 1019,2 20 60 0,0
24.10.2020 12:00:00 17,5 12,0 21,4 15,4 16,7 18 10 29 16 NNE 1020,0 20 60 0,0
24.10.2020 11:00:00 16,5 12,5 20,0 15,4 16,7 12 7 19 11 NNE 1020,5 20 60 0,0
24.10.2020 10:00:00 15,0 12,7 17,6 15,4 16,7 5 3 15 8 NE 1020,9 20 60 0,0
24.10.2020 09:00:00 12,7 11,8 12,0 15,5 16,7 10 5 16 9 NNE 1020,8 19 60 0,0
24.10.2020 08:00:00 11,7 11,4 11,3 15,5 16,6 11 6 21 11 NNE 1020,7 5 19 0,0
24.10.2020 07:00:00 11,5 11,0 11,2 15,6 16,7 10 5 20 11 NNE 1020,3 8 0 0,0
24.10.2020 06:00:00 11,6 11,1 11,0 15,7 16,7 6 3 15 8 N 1020,3 4,8 0 0,0
24.10.2020 05:00:00 11,8 11,3 11,2 15,7 16,7 9 5 19 11 NNE 1020,3 6 0 0,0
24.10.2020 04:00:00 11,8 11,3 10,6 15,8 16,7 11 6 22 12 NNE 1020,3 4,0 0 0,0
24.10.2020 03:00:00 11,6 11,1 8,6 15,9 16,7 6 4 11 6 N 1020,5 20 0 0,2
24.10.2020 02:00:00 11,5 10,9 9,5 15,9 16,7 0 0 7 4 N 1020,6 12 0 0,0
24.10.2020 01:00:00 12,2 11,7 10,7 16,0 16,7 5 3 9 5 N 1020,3 20 0 0,0
24.10.2020 00:00:00 11,5 10,9 9,5 16,0 16,7 0 0 7 4 N 1020,2 20 0 0,0
23.10.2020 23:00:00 11,6 10,8 9,1 16,1 16,7 0 0 8 4 N 1020,1 20 0 0,0
23.10.2020 22:00:00 12,4 11,3 10,2 16,1 16,6 3 1 13 7 WNW 1019,8 19 0 0,0
23.10.2020 21:00:00 13,2 11,8 11,9 16,1 16,6 7 4 16 9 NNE 1019,1 20 0 0,0
23.10.2020 20:00:00 13,7 12,3 12,8 16,1 16,6 8 5 14 8 N 1018,9 20 0 0,0
23.10.2020 19:00:00 14,0 12,7 13,4 16,1 16,6 6 3 16 9 N 1018,6 20 0 0,0
23.10.2020 18:00:00 14,4 12,8 14,0 16,0 16,6 9 5 19 11 NNE 1018,1 20 20 0,0
23.10.2020 17:00:00 15,0 13,9 13,8 16,0 16,6 10 5 15 8 NNE 1017,0 20 15 7,7
23.10.2020 16:00:00 16,1 14,1 15,0 15,9 16,6 9 5 22 12 SW 1016,1 1,6 0 12,6
23.10.2020 15:00:00 17,4 16,1 17,2 15,9 16,6 7 4 19 11 SSW 1015,2 20 0 0,2
23.10.2020 14:00:00 17,3 16,2 16,7 15,8 16,6 11 6 19 11 SSW 1015,2 20 0 1,4
23.10.2020 13:00:00 17,4 15,9 17,0 15,8 16,6 9 5 21 12 SSW 1015,9 17 0 0,4
23.10.2020 12:00:00 17,5 15,8 17,1 15,8 16,6 11 6 20 11 SSW 1016,2 20 0 0,0
23.10.2020 11:00:00 16,9 15,8 16,3 15,8 16,6 9 5 19 11 SSW 1016,2 20 0 0,0
23.10.2020 10:00:00 16,2 15,4 15,4 15,8 16,6 7 4 16 9 SSW 1016,3 17 0 0,0
23.10.2020 09:00:00 15,7 15,1 15,2 15,8 16,6 7 4 19 11 SSW 1016,3 8 0 1,0
23.10.2020 08:00:00 15,6 14,8 15,1 15,8 16,6 10 5 19 11 SSW 1015,8 7 0 2,0
23.10.2020 07:00:00 15,6 14,6 14,9 15,8 16,6 8 4 16 9 SSW 1015,1 9 0 0,4
23.10.2020 06:00:00 15,6 14,3 14,8 15,8 16,6 5 3 11 6 SW 1015,0 20 0 0,0
23.10.2020 05:00:00 15,4 14,1 14,5 15,8 16,6 4 2 17 9 WSW 1015,0 20 0 0,4
23.10.2020 04:00:00 15,0 14,0 14,5 15,8 16,6 5 3 14 8 N 1015,1 19 0 2,4
23.10.2020 03:00:00 15,2 13,9 14,3 15,8 16,6 4 2 6 3 NNW 1015,9 7 0 0,6
23.10.2020 02:00:00 15,4 13,8 14,2 15,8 16,6 0 0 6 4 N 1016,2 20 0 0,0
23.10.2020 01:00:00 15,8 14,0 14,6 15,9 16,6 4 2 10 6 S 1016,3 20 0 0,0
23.10.2020 00:00:00 15,6 14,0 14,5 15,9 16,6 4 2 6 3 SE 1016,7 18 0 0,0
22.10.2020 23:00:00 16,0 14,0 15,1 15,9 16,6 0 0 16 8 N 1017,4 20 0 0,0
22.10.2020 22:00:00 16,1 14,3 15,1 15,8 16,6 9 5 13 7 SSE 1018,1 20 0 0,2
22.10.2020 21:00:00 16,4 14,2 15,2 15,8 16,5 8 4 16 9 S 1017,8 20 0 0,0
22.10.2020 20:00:00 16,5 14,0 15,3 15,8 16,5 5 3 8 4 SSE 1018,0 20 0 0,0
22.10.2020 19:00:00 17,2 13,9 16,0 15,7 16,5 0 0 10 5 N 1017,8 20 0 0,0
22.10.2020 18:00:00 18,0 13,9 16,8 15,7 16,5 7 4 21 12 S 1017,5 20 0 0,0
22.10.2020 17:00:00 18,8 13,2 18,2 15,6 16,5 8 5 24 13 SW 1017,6 20 0 0,0
22.10.2020 16:00:00 19,1 13,1 18,7 15,6 16,5 14 7 25 13 SW 1017,8 20 0 0,0
22.10.2020 15:00:00 18,7 14,0 18,7 15,5 16,5 7 4 14 8 SSW 1018,1 20 0 0,0
22.10.2020 14:00:00 18,2 14,5 17,3 15,5 16,5 8 4 16 8 SSW 1018,4 20 0 0,0
22.10.2020 13:00:00 18,0 14,7 17,4 15,5 16,5 8 5 15 8 S 1019,1 20 0 0,0
22.10.2020 12:00:00 17,5 14,8 15,7 15,5 16,5 10 5 18 10 SSW 1019,7 20 0 0,2
22.10.2020 11:00:00 17,0 13,9 15,8 15,4 16,5 9 5 14 7 SW 1020,0 18 0 0,0
22.10.2020 10:00:00 16,9 13,4 14,9 15,5 16,5 6 4 22 12 S 1019,4 20 0 0,2
22.10.2020 09:00:00 16,9 13,0 14,8 15,4 16,5 10 5 28 15 SW 1019,4 17 0 0,4
22.10.2020 08:00:00 18,6 10,9 18,0 15,5 16,5 9 5 22 12 SSW 1018,3 20 0 0,0
22.10.2020 07:00:00 18,6 10,7 17,8 15,4 16,5 12 6 26 14 SSW 1017,6 20 0 0,0
22.10.2020 06:00:00 18,8 10,6 17,8 15,5 16,5 12 6 26 14 SSW 1017,3 20 0 0,0
22.10.2020 05:00:00 18,5 10,6 17,0 15,5 16,5 11 6 21 12 SW 1017,1 19 0 0,0
22.10.2020 04:00:00 18,3 9,9 17,3 15,5 16,5 11 6 23 12 SSW 1017,0 20 0 0,0
22.10.2020 03:00:00 18,2 10,3 17,3 15,5 16,5 10 5 22 12 SSW 1017,2 20 0 0,0
22.10.2020 02:00:00 17,7 10,6 16,8 15,5 16,5 11 6 22 12 SSW 1017,8 20 0 0,0
22.10.2020 01:00:00 17,7 10,6 15,7 15,5 16,5 11 6 26 14 SSW 1017,5 20 0 0,0
22.10.2020 00:00:00 17,5 10,6 16,5 15,5 16,5 15 8 37 20 S 1017,1 20 0 0,0
21.10.2020 23:00:00 18,4 10,2 17,3 15,5 16,5 21 11 38 20 SSW 1016,7 20 0 0,0
21.10.2020 22:00:00 18,1 10,5 17,1 15,5 16,5 18 10 40 21 SW 1016,9 20 0 0,0
21.10.2020 21:00:00 18,2 10,6 17,3 15,4 16,5 19 10 40 22 SW 1016,6 20 0 0,0
21.10.2020 20:00:00 18,7 10,5 17,9 15,4 16,5 20 11 46 25 SSW 1016,8 20 0 0,0
21.10.2020 19:00:00 19,1 10,4 18,2 15,3 16,5 22 12 53 29 SSW 1015,7 20 0 0,0

tt = Température de l'air
td = dewpoint
tt 5cm = Température de l'air 5cm
tt -20cm = Température de l'air -20cm
tt -100cm = Température de l'air -100cm
ff = Vitesse du vent
fx = gusts
dd = Direction du vent
ppp = reduced air pressure
vv = visibility
sd = Ensoleillement
rr = Quantités de précipitations

stations d'obs. à proximité